Regional Weather Roundup
Issued by NWS

Home | Current Version | Previous Version | Graphics & Text | Print | Product List | Glossary On
Versions: 1 2 3 4 5 6 7 8 9 10 11 12 13 14 15 16 17 18 19 20 21 22 23 24 25 26 27 28 29 30 31 32 33 34 35 36 37 38 39 40 41 42 43 44 45 46 47 48 49 50
000
ASUS43 KLOT 241810
RWRIL

ILLINOIS REGIONAL WEATHER ROUNDUP
NATIONAL WEATHER SERVICE CHICAGO/ROMEOVILLE IL
100 PM CDT THU APR 24 2014

NOTE: "FAIR" INDICATES FEW OR NO CLOUDS BELOW 12,000 FEET WITH NO
SIGNIFICANT WEATHER AND/OR OBSTRUCTIONS TO VISIBILITY.

* THESE STATIONS ARE NOT UNDER NWS QUALITY CONTROL. THEY ALSO MAY NOT
  REPORT WEATHER SUCH AS PRECIPITATION OR FOG.

ILZ001-002-007-009-015-016-024-241900-
NORTHWEST ILLINOIS

CITY           SKY/WX    TMP DP  RH WIND       PRES   REMARKS
MOLINE         RAIN      59  42  53 S16       29.77R
6HR MIN TEMP:  46; 6HR MAX TEMP:  65; 6HR PCP:  0.02;

STERLING*      CLOUDY    63  37  39 SE20G28   29.76S
SAVANNA*       CLOUDY    62  36  38 S18G30    29.77R THUNDER
$$

ILZ003-004-008-010-011-017-018-241900-
NORTH CENTRAL ILLINOIS

CITY           SKY/WX    TMP DP  RH WIND       PRES   REMARKS
ROCKFORD       CLOUDY    63  37  38 S22G36    29.81F
6HR MIN TEMP:  42; 6HR MAX TEMP:  63;

FREEPORT*      PTSUNNY   58  39  50 SE25G31   29.77F THUNDER
ROCHELLE*      FAIR      62  35  37 SE30G38   29.79F THUNDER
DE KALB*       SUNNY     60  37  41 SE23G38   29.82F
PERU*          FAIR      63  36  37 SE17G28   29.80F THUNDER
$$

ILZ005-006-012>014-019>023-241900-
NORTHEAST ILLINOIS

CITY           SKY/WX    TMP DP  RH WIND       PRES   REMARKS
CHICAGO-OHARE  CLOUDY    63  35  35 S18G29    29.87F
6HR MIN TEMP:  42; 6HR MAX TEMP:  64;

CHICAGO-MIDWAY CLOUDY    61  35  37 SE21G26   29.89F
6HR MIN TEMP:  44; 6HR MAX TEMP:  63;

AURORA         SUNNY     62  38  40 SE23G32   29.85F
6HR MIN TEMP:  45; 6HR MAX TEMP:  62;

LANSING*       CLOUDY    60  32  34 SE22      29.90F
JOLIET*        PTSUNNY   59  36  42 SE17G24   29.88F
WAUKEGAN       PTSUNNY   51  33  50 SE16G25   29.89F
6HR MIN TEMP:  39; 6HR MAX TEMP:  55;

DUPAGE AIRPORT PTSUNNY   61  36  39 SE24G30   29.85F
6HR MIN TEMP:  43; 6HR MAX TEMP:  64;

KANKAKEE*      PTSUNNY   64  37  37 SE18G26   29.89F
WHEELING       PTSUNNY   62  37  39 S18       29.89F
6HR MIN TEMP:  41; 6HR MAX TEMP:  63;

MORRIS*        SUNNY     65  29  25 SE21G29   29.84F
ROMEOVILLE*    PTSUNNY   59  35  40 SE20G31   29.86F
NORTHERLY ISL    N/A     55  41  59 E16         N/A
$$

LMZ740>746-241900-
SOUTHERN LAKE MICHIGAN

STATION/POSITION SKY/WX   TEMP    WIND        PRES    VSBY  WAVE
                          AIR SEA DIR/SP/G                  HT/PER
                          (F)     (DEG/KT/KT) (MB)    (MI)  (FT/S)
WAUKEGAN HARBOR            47     160/  6/  8 1013.9F
HARRISON CRIB              52     160/ 15/ 21   N/A
BURNHAM HARBOR             55     110/ 14/ 15   N/A
CALUMET HARBOR             60     150/ 14/ 22 1013.3F
MICHIGAN CITY              58     120/ 16/ 23   N/A
$$

ILZ025>027-034>036-040-047-049-050-058-095>099-241900-
WEST-CENTRAL ILLINOIS

CITY           SKY/WX    TMP DP  RH WIND       PRES   REMARKS
QUINCY         CLOUDY    65  40  39 SE10      29.74F
GALESBURG*     TSTM      58  47  66 SE9       29.76F
MACOMB*        CLOUDY    65  41  41 S13G20    29.78F
JACKSONVILLE*  FAIR      71  41  33 S15G24    29.78R
PITTSFIELD*    PTSUNNY   71  39  31 S17       29.76F
$$

ILZ028>032-037-038-041>044-048-051>054-059>061-241900-
CENTRAL ILLINOIS

CITY           SKY/WX    TMP DP  RH WIND       PRES   REMARKS
PONTIAC        FAIR      70  34  26 S23G33    29.84F
BLOOMINGTON    FAIR      65  35  32 SE25G32   29.82F
DECATUR        FAIR      69  39  33 SE23G29   29.83F
PEORIA         PTSUNNY   69  38  32 SE17G25   29.78F
6HR MIN TEMP:  53; 6HR MAX TEMP:  69;

LACON*         FAIR      65  38  37 SE21G29   29.78F THUNDER
LINCOLN*       FAIR      70  37  30 S18G30    29.79F
SPRINGFIELD    FAIR      73  39  29 S23G31    29.78F
6HR MIN TEMP:  52; 6HR MAX TEMP:  73;

TAYLORVILLE    FAIR      70  41  35 SE18      29.81F
$$

ILZ033-039-045-046-055>057-062-063-241900-
EAST-CENTRAL ILLINOIS

CITY           SKY/WX    TMP DP  RH WIND       PRES   REMARKS
CHAMPAIGN      MOSUNNY   69  35  28 SE21G29   29.86F
RANTOUL*       SUNNY     66  33  29 SE21G26   29.88F
MATTOON        FAIR      66  39  37 SE16G22   29.86F
PARIS*         PTSUNNY   65  38  35 SE15G22   29.90F
$$

ILZ079-100>102-241900-
SOUTHWEST ILLINOIS

CITY           SKY/WX    TMP DP  RH WIND       PRES   REMARKS
ALTON          MOSUNNY   72  43  35 S17       29.80F
BELLEVILLE     FAIR      74  45  34 S21G28    29.79F
CAHOKIA*       FAIR      74  45  35 SE14G24   29.78F
SPARTA*        PTSUNNY   72  45  37 S10G17    29.83F
$$

ILZ064>066-069>071-074>076-080>082-084>086-088>090-092>094-241900-
SOUTH-CENTRAL ILLINOIS

CITY           SKY/WX    TMP DP  RH WIND       PRES   REMARKS
CARBONDALE     FAIR      74  44  34 S14       29.84F
6HR MIN TEMP:  52; 6HR MAX TEMP:  74;

CAIRO*         FAIR      80  42  25 S14       29.86S
MARION         PTSUNNY   77  43  29 SW17      29.86F
MT. VERNON     FAIR     N/A N/A N/A SE14      29.87S
CENTRALIA*     FAIR      73  40  31 S13G22    29.84F
SALEM*         FAIR      73  45  35 S14G20    29.85S
METROPOLIS*    FAIR      76  34  21 S13       29.86F
$$

ILZ067-068-072-073-078-083-087-091-241900-
SOUTHEAST ILLINOIS

CITY           SKY/WX    TMP DP  RH WIND       PRES   REMARKS
FLORA*         SUNNY     71  39  31 SE13      29.86F
FAIRFIELD*     FAIR      72  46  40 SE13      29.87F
HARRISBURG*    FAIR      75  41  29 S14       29.87F
ROBINSON*      SUNNY     70  41  35 S12G20    29.90F
CARMI*         FAIR      74  44  34 SE12      29.87F
$$

ABBREVIATIONS USED IN REMARKS
   TC - TEMPERATURE IN CELSIUS
  WCI - WIND CHILL INDEX
   HX - HEAT INDEX
  VSB - VISIBILITY
$$




USA.gov is the U.S. government's official web portal to all federal, state and local government web resources and services.